Location: Newark
(35.2672°N, 80.7344°W)
Time: 21:02:54
(UTC+00:00)

Transit 2A Rocket - Pass Details

Date: 26 January 2020
Orbit: 591 x 912 km, 66.7° (Epoch: 25 February)

Event Time Altitude Azimuth Distance (km) Brightness Sun altitude
Rises 20:30:28 0° 317° (NW) 3,108 8.1 21.9°
Reaches altitude 10° 20:33:07 10° 303° (WNW) 2,242 7.6 21.6°
Maximum altitude 20:37:10 24° 251° (WSW) 1,568 8.2 21.0°
Drops below altitude 10° 20:41:29 10° 199° (SSW) 2,401 8.8 20.3°
Sets 20:44:27 0° 186° (S) 3,383 9.1 19.9°
